KC7FQC Weather Reports


Display with metric or nautical units.
time (UTC)temp
F
wind
direction
speed
MPH
gust
MPH
rain 1hr
in
rain 24hr
in
rain mn
in
humidity
%
barometer
mb
20180920223058 100 235 1.0 10.0 0.00 0.01 0.00 31 1008.0
20180920220058 100 237 8.0 11.0 0.00 0.01 0.00 34 1008.5
20180920213058 100 269 0.0 12.0 0.00 0.03 0.00 33 1008.7
20180920210113 99 227 5.0 12.0 0.00 0.03 0.00 38 1008.9
20180920203113 99 232 5.0 11.0 0.00 0.07 0.00 37 1009.3
20180920200058 98 252 2.0 16.0 0.00 0.09 0.00 39 1009.8
20180920193113 97 259 2.0 8.0 0.00 0.10 0.00 39 1010.2
20180920190057 95 259 1.0 9.0 0.00 0.10 0.00 43 1010.6
20180920183057 94 238 6.0 9.0 0.00 0.10 0.00 45 1011.0
20180920180113 92 254 5.0 9.0 0.00 0.10 0.00 47 1011.2
20180920173057 91 212 0.0 7.0 0.00 0.10 0.00 49 1011.3
20180920170057 89 197 0.0 5.0 0.00 0.10 0.00 53 1011.3
20180920163057 86 196 0.0 6.0 0.00 0.10 0.00 60 1011.2
20180920160113 82 239 0.0 6.0 0.00 0.10 0.00 67 1011.0
20180920153057 80 234 0.0 4.0 0.00 0.10 0.00 76 1010.8
20180920150113 76 242 0.0 1.0 0.00 0.10 0.00 92 1010.5
20180920143057 74 242 0.0 2.0 0.00 0.10 0.00 93 1010.1
20180920140057 73 242 0.0 1.0 0.00 0.10 0.00 93 1009.9
20180920133057 72 231 0.0 1.0 0.00 0.10 0.00 92 1009.1
20180920130112 73 147 0.0 0.0 0.00 0.10 0.00 92 1009.0
20180920123112 73 147 0.0 0.0 0.00 0.10 0.00 91 1008.9
20180920120113 73 147 0.0 0.0 0.00 0.10 0.00 91 1008.5
20180920113057 73 147 0.0 0.0 0.00 0.10 0.00 91 1008.4
20180920110057 73 147 0.0 0.0 0.00 0.10 0.00 90 1008.1
20180920103057 73 147 0.0 0.0 0.00 0.10 0.00 90 1008.0
20180920100057 73 147 0.0 0.0 0.00 0.10 0.00 89 1007.9
20180920093057 74 147 0.0 0.0 0.00 0.10 0.00 89 1007.9
20180920090057 74 147 0.0 2.0 0.00 0.10 0.00 89 1007.9
20180920083112 74 147 1.0 2.0 0.00 0.10 0.00 89 1007.9
20180920080112 74 147 0.0 1.0 0.00 0.10 0.00 88 1007.8
20180920073056 74 147 0.0 1.0 0.00 0.10 0.00 87 1008.0
20180920070112 75 147 0.0 1.0 0.00 0.10 0.00 86 1008.1
20180920063126 75 147 0.0 0.0 0.00 0.10 0.10 85 1008.3
20180920060056 75 147 0.0 2.0 0.00 0.10 0.10 84 1008.3
20180920053126 75 147 0.0 4.0 0.00 0.10 0.10 84 1008.7
20180920050112 76 147 4.0 5.0 0.00 0.10 0.10 84 1008.8
20180920043056 76 147 1.0 9.0 0.00 0.10 0.10 84 1008.8
20180920040112 77 186 4.0 6.0 0.00 0.10 0.10 85 1008.6
20180920033056 77 188 1.0 4.0 0.00 0.10 0.10 86 1008.2
20180920030056 77 188 2.0 3.0 0.00 0.10 0.10 85 1007.2
20180920023056 77 188 0.0 6.0 0.00 0.10 0.10 84 1006.6
20180920020056 77 188 1.0 5.0 0.00 0.10 0.10 83 1006.4
20180920013056 78 188 2.0 3.0 0.00 0.10 0.10 84 1006.4
20180920010056 78 188 0.0 5.0 0.00 0.10 0.10 83 1006.4
20180920003111 78 188 0.0 2.0 0.00 0.10 0.10 82 1006.5
20180920000055 77 188 0.0 2.0 0.00 0.10 0.10 83 1006.3
20180919233111 77 188 0.0 5.0 0.01 0.10 0.10 83 1006.4
20180919230055 77 188 4.0 6.0 0.01 0.10 0.10 85 1006.5